{"data":{"norad_id":64927,"intl_designator":"2025-157Z","name":"STARLINK-34661","alt_names":[],"object_type":"PAYLOAD","status":"ACTIVE","operator":null,"country":"US","launch_date":"2025-07-26","launch_site_code":"AFETR","launch_vehicle":null,"mission":null,"orbit_class":"UNKNOWN","rcs_meters":null,"size_class":null,"mass_kg":null,"dimensions":null,"purposes":["comms"],"wikipedia_slug":null,"has_3d_model":false,"image_url":null,"decayed_at":null,"tle_current":{"epoch":"2026-05-24T23:41:24.144000Z","epoch_age_seconds":73341,"freshness":"FRESH","line1":"1 64927U 25157Z   26144.98708500  .00016301  00000+0  56105-3 0  9992","line2":"2 64927  53.1588 351.3772 0001120  79.8981 280.2146 15.30213779 47523","mean_motion":15.30213779,"eccentricity":0.000112,"inclination_deg":53.1588,"raan_deg":351.3772,"arg_perigee_deg":79.8981,"mean_anomaly_deg":280.2146,"bstar":0.00056105,"rev_number":4752,"period_min":94.104498323172,"perigee_km":474.40635729378,"apogee_km":475.94149894168,"semimajor_km":6853.3109281177,"source":"CELESTRAK","updated_at":"2026-05-25T13:38:20.626121Z"}}}